Weather History for Ft Pierce, FL

Change the Weather History Date:

Saturday, October 1, 2011

  Actual Average Record
Temperature  
Mean Temperature 77 °F -  
Max Temperature 87 °F 87 °F 94 °F (1944)
Min Temperature 68 °F 71 °F 60 °F (1993)
Cooling Degree Days 12    
Growing Degree Days 27 (Base 50)    
Moisture  
Dew Point 67 °F    
Average Humidity 74    
Maximum Humidity 96    
Minimum Humidity 57    
Precipitation  
Precipitation 0.00 in - - ()
Sea Level Pressure  
Sea Level Pressure 29.85 in    
Wind  
Wind Speed 5 mph (North)    
Max Wind Speed 13 mph    
Max Gust Speed 18 mph    
Visibility 9 miles    
Events      
Averages and records for this station are not official NWS values.
T = Trace of Precipitation, MM = Missing Value Source: NWS Daily Summary

Daily Weather History Graph

Daily Weather History Graph

Search for Another Location

Airport:

Trip Planner

Search our weather history database for the weather conditions in past years. The results will help you decide how hot, cold, wet, or windy it might be!

Date:

Astronomy

Oct. 01, 2011 Rise Set
Actual Time 7:14 AM EDT 7:07 PM EDT
Civil Twilight 6:50 AM EDT 7:31 PM EDT
Nautical Twilight 6:23 AM EDT 7:58 PM EDT
Astronomical Twilight 5:56 AM EDT 8:25 PM EDT
Moon 11:49 AM EDT (10/1) 10:33 PM EDT (10/1)
Length of Visible Light 12h 40m
Length of Day
11h 53m
Waxing Crescent, 24% of the Moon is Illuminated
Oct 1
Waxing Crescent
Oct 3
First Quarter
Oct 11
Full
Oct 19
Last Quarter
Oct 26
New

Hourly Weather History & Observations

Time (EDT) Temp. Heat Index Dew Point Humidity Pressure Visibility Wind Dir Wind Speed Gust Speed Precip Events Conditions
12:53 AM 71.6 °F - 69.8 °F 94% 29.79 in 10.0 mi WNW 3.5 mph - N/A   Clear
1:53 AM 72.0 °F - 70.0 °F 93% 29.79 in 10.0 mi Calm Calm - N/A   Clear
2:53 AM 71.1 °F - 69.1 °F 93% 29.79 in 8.0 mi West 3.5 mph - N/A   Clear
3:53 AM 70.0 °F - 68.0 °F 93% 29.78 in 8.0 mi WNW 3.5 mph - N/A   Clear
4:53 AM 69.1 °F - 68.0 °F 96% 29.78 in 6.0 mi WNW 3.5 mph - N/A   Clear
5:53 AM 70.0 °F - 68.0 °F 93% 29.79 in 6.0 mi WNW 4.6 mph - N/A   Partly Cloudy
6:53 AM 68.0 °F - 66.9 °F 96% 29.81 in 10.0 mi West 3.5 mph - N/A   Clear
7:53 AM 69.8 °F - 68.0 °F 94% 29.83 in 5.0 mi Calm Calm - N/A   Clear
8:53 AM 75.0 °F - 69.1 °F 82% 29.84 in 9.0 mi NNW 4.6 mph - N/A   Clear
9:53 AM 80.6 °F 83.9 °F 69.8 °F 70% 29.86 in 10.0 mi NNW 8.1 mph - N/A   Clear
10:53 AM 82.0 °F 85.9 °F 70.0 °F 67% 29.87 in 10.0 mi North 8.1 mph - N/A   Clear
11:53 AM 86.0 °F 90.1 °F 69.1 °F 57% 29.87 in 10.0 mi Variable 5.8 mph - N/A   Partly Cloudy
12:53 PM 86.0 °F 90.7 °F 70.0 °F 59% 29.87 in 10.0 mi NE 9.2 mph - N/A   Scattered Clouds
1:53 PM 84.9 °F 88.8 °F 69.1 °F 59% 29.85 in 10.0 mi NE 11.5 mph 18.4 mph N/A   Partly Cloudy
2:53 PM 84.9 °F 88.2 °F 68.0 °F 57% 29.84 in 10.0 mi NNE 10.4 mph 16.1 mph N/A   Scattered Clouds
3:53 PM 82.4 °F 85.4 °F 68.0 °F 62% 29.83 in 10.0 mi NNE 11.5 mph 18.4 mph N/A   Clear
4:53 PM 82.0 °F 84.5 °F 66.9 °F 60% 29.83 in 10.0 mi NNE 12.7 mph 18.4 mph N/A   Partly Cloudy
5:53 PM 80.1 °F 82.1 °F 66.0 °F 62% 29.85 in 10.0 mi North 9.2 mph - N/A   Partly Cloudy
6:53 PM 78.1 °F - 66.0 °F 66% 29.86 in 10.0 mi NNE 6.9 mph - N/A   Clear
7:53 PM 75.0 °F - 64.9 °F 71% 29.87 in 10.0 mi North 4.6 mph - N/A   Clear
8:53 PM 75.2 °F - 64.4 °F 69% 29.89 in 10.0 mi North 4.6 mph - N/A   Clear
9:53 PM 75.0 °F - 63.0 °F 66% 29.92 in 10.0 mi North 8.1 mph - N/A   Partly Cloudy
10:53 PM 75.0 °F - 62.1 °F 64% 29.94 in 10.0 mi Variable 5.8 mph - N/A   Scattered Clouds
11:53 PM 75.0 °F - 60.1 °F 60% 29.94 in 10.0 mi NNE 4.6 mph - N/A   Partly Cloudy